Sioux Falls, SD

10:36 PM CST on February 07, 2016 (GMT -0600)
Foss

Weather History for KFSD - September, 2013

Change the Weather History Date:

Sunday, September 15, 2013

  Actual Average Record
Temperature  
Mean Temperature 57 °F 62 °F  
Max Temperature 67 °F 74 °F 99 °F (1955)
Min Temperature 46 °F 50 °F 28 °F (1916)
Degree Days  
Heating Degree Days 8 5  
Month to date heating degree days 17 51  
Since 1 July heating degree days 51 82  
Cooling Degree Days 0 2  
Month to date cooling degree days 94 46  
Year to date cooling degree days 748 671  
Growing Degree Days 8 (Base 50)    
Moisture  
Dew Point 54 °F    
Average Humidity 80    
Maximum Humidity 97    
Minimum Humidity 58    
Precipitation  
Precipitation T in 0.09 in 1.50 in (1988)
Month to date precipitation 0.21 1.44  
Year to date precipitation 20.63 20.83  
Snow  
Snow 0.00 in 0.00 in 0.00 in ()
Month to date snowfall 0.0 0.0  
Since 1 July snowfall 0.0 0.0  
Since 1 September snowfall 0.0 0.0  
Snow Depth 0.00 in    
Sea Level Pressure  
Sea Level Pressure 30.07 in    
Wind  
Wind Speed 9 mph (NNE)    
Max Wind Speed 22 mph    
Max Gust Speed 29 mph    
Visibility 10 miles    
Events Rain    
T = Trace of Precipitation, MM = Missing Value Source: NWS Daily Summary

Daily Weather History Graph

Daily Weather History Graph

Search for Another Location

Airport or City:

Trip Planner

Search our weather history database for the weather conditions in past years. The results will help you decide how hot, cold, wet, or windy it might be!

Date:

Astronomy

Sep. 15, 2013 Rise Set
Actual Time 7:06 AM CDT 7:36 PM CDT
Civil Twilight 6:37 AM CDT 8:05 PM CDT
Nautical Twilight 6:03 AM CDT 8:39 PM CDT
Astronomical Twilight 5:28 AM CDT 9:14 PM CDT
Moon 5:10 PM CDT (9/15) 2:39 AM CDT (9/15)
Length of Visible Light 13h 27m
Length of Day
12h 30m
Waxing Gibbous, 82% of the Moon is Illuminated
Sep 15
Waxing Gibbous
Sep 19
Full
Sep 26
Last Quarter
Oct 4
New
Oct 11
First Quarter

Hourly Weather History & Observations

Time (CDT) Temp. Dew Point Humidity Pressure Visibility Wind Dir Wind Speed Gust Speed Precip Events Conditions
12:56 AM 66.9 °F 55.9 °F 68% 29.79 in 10.0 mi SW 8.1 mph 18.4 mph N/A   Partly Cloudy
1:56 AM 64.0 °F 55.9 °F 75% 29.79 in 10.0 mi SSW 6.9 mph - N/A   Mostly Cloudy
2:56 AM 62.1 °F 60.1 °F 93% 29.82 in 10.0 mi WNW 5.8 mph - 0.00 in Rain Light Rain
3:25 AM 62.6 °F 60.8 °F 94% 29.83 in 10.0 mi NW 6.9 mph - 0.00 in   Mostly Cloudy
3:48 AM 62.6 °F 59.0 °F 88% 29.85 in 10.0 mi North 9.2 mph - 0.00 in   Mostly Cloudy
3:56 AM 62.1 °F 59.0 °F 90% 29.85 in 10.0 mi North 10.4 mph - 0.00 in   Mostly Cloudy
4:16 AM 62.6 °F 57.2 °F 82% 29.87 in 10.0 mi North 15.0 mph 21.9 mph N/A   Overcast
4:44 AM 60.8 °F 57.2 °F 88% 29.89 in 10.0 mi NNE 13.8 mph 27.6 mph N/A   Overcast
4:56 AM 61.0 °F 57.0 °F 87% 29.89 in 10.0 mi North 13.8 mph 20.7 mph N/A   Overcast
5:56 AM 59.0 °F 55.0 °F 87% 29.94 in 10.0 mi NNE 15.0 mph 21.9 mph N/A   Overcast
6:56 AM 59.0 °F 54.0 °F 83% 29.99 in 10.0 mi NNE 16.1 mph 24.2 mph N/A   Overcast
7:56 AM 59.0 °F 53.1 °F 81% 30.04 in 10.0 mi NNE 19.6 mph 26.5 mph N/A   Overcast
8:03 AM 59.0 °F 53.6 °F 82% 30.05 in 10.0 mi NNE 13.8 mph 23.0 mph N/A   Overcast
8:56 AM 59.0 °F 53.1 °F 81% 30.06 in 10.0 mi NNE 15.0 mph - N/A   Overcast
9:56 AM 59.0 °F 53.1 °F 81% 30.09 in 10.0 mi NE 13.8 mph 23.0 mph N/A   Overcast
10:56 AM 60.1 °F 53.1 °F 78% 30.12 in 10.0 mi NNE 12.7 mph 23.0 mph N/A   Overcast
11:56 AM 60.1 °F 53.1 °F 78% 30.15 in 10.0 mi NNE 13.8 mph - N/A   Overcast
12:56 PM 61.0 °F 53.1 °F 75% 30.17 in 10.0 mi NNE 9.2 mph 18.4 mph N/A   Overcast
1:56 PM 61.0 °F 54.0 °F 78% 30.19 in 10.0 mi NE 11.5 mph 18.4 mph N/A   Overcast
2:56 PM 62.1 °F 53.1 °F 72% 30.21 in 10.0 mi NE 13.8 mph 20.7 mph N/A   Overcast
3:56 PM 62.1 °F 53.1 °F 72% 30.21 in 10.0 mi NNE 10.4 mph - N/A   Overcast
4:56 PM 63.0 °F 53.1 °F 70% 30.21 in 10.0 mi NNE 12.7 mph - N/A   Overcast
5:14 PM 62.6 °F 53.6 °F 72% 30.21 in 10.0 mi NE 11.5 mph - N/A   Overcast
5:56 PM 63.0 °F 54.0 °F 72% 30.22 in 10.0 mi NE 10.4 mph - N/A   Mostly Cloudy
6:56 PM 63.0 °F 52.0 °F 67% 30.24 in 10.0 mi NNE 6.9 mph - N/A   Mostly Cloudy
7:56 PM 55.9 °F 51.1 °F 84% 30.25 in 10.0 mi Calm Calm - N/A   Scattered Clouds
8:56 PM 53.1 °F 50.0 °F 89% 30.28 in 10.0 mi Calm Calm - N/A   Clear
9:56 PM 52.0 °F 50.0 °F 93% 30.30 in 10.0 mi Calm Calm - N/A   Partly Cloudy
10:56 PM 51.1 °F 50.0 °F 96% 30.30 in 10.0 mi Calm Calm - N/A   Partly Cloudy
11:56 PM 48.9 °F 48.0 °F 97% 30.32 in 10.0 mi Calm Calm - N/A   Clear